FW2998 Weather Reports


time (UTC)temp
F
wind
direction
speed
knots
gust
knots
rain 1hr
in
rain 24hr
in
rain mn
in
humidity
%
barometer
mb
20260901174545 93 0 0.0 0.0 0.00 0.00 0.00 60 1018.7
20260901174019 92 0 0.0 0.0 0.00 0.00 0.00 59 1018.8
20260901173529 92 0 0.0 0.0 0.00 0.00 0.00 60 1018.9
20260901173042 92 0 0.0 0.0 0.00 0.00 0.00 59 1019.0
20260901172526 93 0 0.0 0.0 0.00 0.00 0.00 60 1019.1
20260901172026 92 0 0.0 0.0 0.00 0.00 0.00 61 1019.1
20260901171547 91 0 0.0 0.0 0.00 0.00 0.00 63 1019.2
20260901171023 92 0 0.0 0.0 0.00 0.00 0.00 63 1019.2
20260901170519 92 0 0.0 0.0 0.00 0.00 0.00 61 1019.2
20260901170044 92 0 0.0 0.0 0.00 0.00 0.00 62 1019.3
20260901165522 91 0 0.0 0.0 0.00 0.00 0.00 63 1019.4
20260901165026 92 0 0.0 0.0 0.00 0.00 0.00 62 1019.4
20260901164541 92 0 0.0 0.0 0.00 0.00 0.00 61 1019.5
20260901164026 92 0 0.0 0.0 0.00 0.00 0.00 63 1019.5
20260901163526 91 0 0.0 0.0 0.00 0.00 0.00 62 1019.6
20260901163054 91 0 0.0 0.0 0.00 0.00 0.00 63 1019.5
20260901162521 91 0 0.0 0.0 0.00 0.00 0.00 62 1019.7
20260901162027 90 0 0.0 0.0 0.00 0.00 0.00 64 1019.7
20260901161544 91 0 0.0 0.0 0.00 0.00 0.00 65 1019.7
20260901161026 91 0 0.0 0.0 0.00 0.00 0.00 62 1019.8
20260901160527 91 0 0.0 0.0 0.00 0.00 0.00 66 1019.9
20260901160044 90 0 0.0 0.0 0.00 0.00 0.00 63 1019.9
20260901155523 90 0 0.0 0.0 0.00 0.00 0.00 63 1019.9
20260901155027 90 0 0.0 0.0 0.00 0.00 0.00 63 1019.9
20260901154608 90 0 0.0 0.0 0.00 0.00 0.00 62 1020.0
20260901154026 91 0 0.0 0.0 0.00 0.00 0.00 65 1020.1
20260901153527 91 0 0.0 0.0 0.00 0.00 0.00 64 1020.1
20260901153047 92 0 0.0 0.0 0.00 0.00 0.00 64 1020.1
20260901152523 92 0 0.0 0.0 0.00 0.00 0.00 66 1020.0
20260901152025 91 0 0.0 0.0 0.00 0.00 0.00 63 1020.1
20260901151544 91 0 0.0 0.0 0.00 0.00 0.00 66 1020.1
20260901151025 91 0 0.0 0.0 0.00 0.00 0.00 65 1020.1
20260901150523 91 0 0.0 0.0 0.00 0.00 0.00 71 1020.1
20260901150054 90 0 0.0 0.0 0.00 0.00 0.00 69 1020.1
20260901145525 89 0 0.0 0.0 0.00 0.00 0.00 68 1020.1
20260901145026 89 0 0.0 0.0 0.00 0.00 0.00 69 1020.2
20260901144543 89 0 0.0 0.0 0.00 0.00 0.00 72 1020.3
20260901144024 89 0 0.0 0.0 0.00 0.00 0.00 71 1020.2
20260901143525 88 0 0.0 0.0 0.00 0.00 0.00 73 1020.3
20260901143049 88 0 0.0 0.0 0.00 0.00 0.00 73 1020.3
20260901142522 87 0 0.0 0.0 0.00 0.00 0.00 73 1020.3
20260901142023 88 0 0.0 0.0 0.00 0.00 0.00 74 1020.3
20260901141555 87 0 0.0 0.0 0.00 0.00 0.00 75 1020.2
20260901141025 87 0 0.0 0.0 0.00 0.00 0.00 77 1020.2
20260901140523 86 0 0.0 0.0 0.00 0.00 0.00 78 1020.2
20260901140053 86 0 0.0 0.0 0.00 0.00 0.00 78 1020.1
20260901135525 85 0 0.0 0.0 0.00 0.00 0.00 80 1020.1
20260901135020 85 0 0.0 0.0 0.00 0.00 0.00 79 1020.1
20260901134545 84 0 0.0 0.0 0.00 0.00 0.00 80 1020.1
20260901134020 84 0 0.0 0.0 0.00 0.00 0.00 82 1020.0
20260901133523 83 0 0.0 0.0 0.00 0.00 0.00 85 1020.0
20260901133043 82 0 0.0 0.0 0.00 0.00 0.00 86 1020.0
20260901132524 81 0 0.0 0.0 0.00 0.00 0.00 88 1020.1
20260901132026 81 0 0.0 0.0 0.00 0.00 0.00 90 1020.0
20260901131545 80 0 0.0 0.0 0.00 0.00 0.00 92 1020.0
20260901131025 79 0 0.0 0.0 0.00 0.00 0.00 94 1019.9
20260901130528 78 0 0.0 0.0 0.00 0.00 0.00 95 1019.9
20260901130046 78 0 0.0 0.0 0.00 0.00 0.00 95 1020.0
20260901125524 77 0 0.0 0.0 0.00 0.00 0.00 95 1020.1
20260901125024 77 0 0.0 0.0 0.00 0.00 0.00 96 1020.1
20260901124547 77 0 0.0 0.0 0.00 0.00 0.00 96 1020.1
20260901124024 76 0 0.0 0.0 0.00 0.00 0.00 96 1020.1
20260901123526 76 0 0.0 0.0 0.00 0.00 0.00 96 1020.2
20260901123044 75 0 0.0 0.0 0.00 0.00 0.00 95 1020.1
20260901122527 75 0 0.0 0.0 0.00 0.00 0.00 95 1020.1
20260901122028 75 0 0.0 0.0 0.00 0.00 0.00 95 1020.0
20260901121543 75 0 0.0 0.0 0.00 0.00 0.00 95 1019.9
20260901121025 74 0 0.0 0.0 0.00 0.00 0.00 94 1019.9
20260901120525 74 0 0.0 0.0 0.00 0.00 0.00 94 1019.9
20260901120100 74 0 0.0 0.0 0.00 0.00 0.00 94 1020.0
20260901115526 74 0 0.0 0.0 0.00 0.00 0.00 94 1020.0
20260901115028 74 0 0.0 0.0 0.00 0.00 0.00 93 1019.9
20260901114545 73 0 0.0 0.0 0.00 0.00 0.00 93 1019.9
20260901114024 73 0 0.0 0.0 0.00 0.00 0.00 93 1019.8
20260901113523 73 0 0.0 0.0 0.00 0.00 0.00 93 1019.7
20260901113054 73 0 0.0 0.0 0.00 0.00 0.00 93 1019.7
20260901112526 73 0 0.0 0.0 0.00 0.00 0.00 93 1019.6
20260901112025 73 0 0.0 0.0 0.00 0.00 0.00 93 1019.5
20260901111543 73 0 0.0 0.0 0.00 0.00 0.00 93 1019.4
20260901111026 73 0 0.0 0.0 0.00 0.00 0.00 93 1019.4
20260901110528 73 0 0.0 0.0 0.00 0.00 0.00 92 1019.4
20260901110050 73 0 0.0 0.0 0.00 0.00 0.00 92 1019.3
20260901105519 73 0 0.0 0.0 0.00 0.00 0.00 92 1019.3
20260901105020 73 0 0.0 0.0 0.00 0.00 0.00 92 1019.3
20260901104543 73 0 0.0 0.0 0.00 0.00 0.00 92 1019.3
20260901104019 73 0 0.0 0.0 0.00 0.00 0.00 92 1019.3
20260901103525 74 0 0.0 0.0 0.00 0.00 0.00 92 1019.3
20260901103054 74 0 0.0 0.0 0.00 0.00 0.00 92 1019.3
20260901102523 74 0 0.0 0.0 0.00 0.00 0.00 92 1019.3
20260901102026 74 0 0.0 0.0 0.00 0.00 0.00 92 1019.4
20260901101543 74 0 0.0 0.0 0.00 0.00 0.00 92 1019.3
20260901101025 74 0 0.0 0.0 0.00 0.00 0.00 92 1019.3
20260901100527 74 0 0.0 0.0 0.00 0.00 0.00 92 1019.1
20260901100045 74 0 0.0 0.0 0.00 0.00 0.00 92 1019.1
20260901095525 74 0 0.0 0.0 0.00 0.00 0.00 92 1019.1
20260901095025 74 0 0.0 0.0 0.00 0.00 0.00 92 1019.1
20260901094548 74 0 0.0 0.0 0.00 0.00 0.00 92 1019.1
20260901094024 74 0 0.0 0.0 0.00 0.00 0.00 92 1019.1
20260901093526 74 0 0.0 0.0 0.00 0.00 0.00 91 1019.0
20260901093050 74 0 0.0 0.0 0.00 0.00 0.00 91 1019.0
20260901092518 74 0 0.0 0.0 0.00 0.00 0.00 91 1018.9
20260901092019 74 0 0.0 0.0 0.00 0.00 0.00 91 1019.1
20260901091547 74 0 0.0 0.0 0.00 0.00 0.00 91 1019.0
20260901091019 74 0 0.0 0.0 0.00 0.00 0.00 91 1019.0
20260901090529 74 0 0.0 0.0 0.00 0.00 0.00 91 1019.1
20260901090051 74 0 0.0 0.0 0.00 0.00 0.00 91 1018.9
20260901085523 74 0 0.0 0.0 0.00 0.00 0.00 91 1019.0
20260901085025 74 0 0.0 0.0 0.00 0.00 0.00 91 1018.9
20260901084540 75 0 0.0 0.0 0.00 0.00 0.00 91 1018.9
20260901084026 75 0 0.0 0.0 0.00 0.00 0.00 91 1019.0
20260901083527 75 0 0.0 0.0 0.00 0.00 0.00 91 1019.0
20260901083046 75 0 0.0 0.0 0.00 0.00 0.00 91 1019.1
20260901082523 75 0 0.0 0.0 0.00 0.00 0.00 91 1019.1
20260901082025 75 0 0.0 0.0 0.00 0.00 0.00 91 1019.1
20260901081544 75 0 0.0 0.0 0.00 0.00 0.00 91 1019.0
20260901081026 75 0 0.0 0.0 0.00 0.00 0.00 91 1018.9
20260901080522 75 0 0.0 0.0 0.00 0.00 0.00 91 1019.0
20260901080055 75 0 0.0 0.0 0.00 0.00 0.00 91 1019.1
20260901075524 75 0 0.0 0.0 0.00 0.00 0.00 90 1019.1
20260901075024 75 0 0.0 0.0 0.00 0.00 0.00 90 1019.1
20260901074548 75 0 0.0 0.0 0.00 0.00 0.00 90 1019.2
20260901074024 75 0 0.0 0.0 0.00 0.00 0.00 90 1019.2
20260901073523 75 0 0.0 0.0 0.00 0.00 0.00 91 1019.2
20260901073045 75 0 0.0 0.0 0.00 0.00 0.00 90 1019.2
20260901072525 75 0 0.0 0.0 0.00 0.00 0.00 90 1019.3
20260901072022 75 0 0.0 0.0 0.00 0.00 0.00 90 1019.3
20260901071550 75 0 0.0 0.0 0.00 0.00 0.00 90 1019.3
20260901071023 76 0 0.0 0.0 0.00 0.00 0.00 90 1019.3
20260901070527 76 0 0.0 0.0 0.00 0.00 0.00 90 1019.3
20260901070048 76 0 0.0 0.0 0.00 0.00 0.00 90 1019.3
20260901065523 76 0 0.0 0.0 0.00 0.00 0.00 90 1019.3
20260901065024 76 0 0.0 0.0 0.00 0.00 0.00 90 1019.4
20260901064543 76 0 0.0 0.0 0.00 0.00 0.00 90 1019.4
20260901064025 76 0 0.0 0.0 0.00 0.00 0.00 89 1019.5
20260901063521 76 0 0.0 0.0 0.00 0.00 0.00 89 1019.5
20260901063050 76 0 0.0 0.0 0.00 0.00 0.00 89 1019.4
20260901062525 76 0 0.0 0.0 0.00 0.00 0.00 89 1019.5
20260901062024 76 0 0.0 0.0 0.00 0.00 0.00 89 1019.5
20260901061546 76 0 0.0 0.0 0.00 0.00 0.00 89 1019.6
20260901061024 76 0 0.0 0.0 0.00 0.00 0.00 89 1019.7
20260901060526 76 0 0.0 0.0 0.00 0.00 0.00 89 1019.8
20260901060046 76 0 0.0 0.0 0.00 0.00 0.00 89 1019.8
20260901055525 76 0 0.0 0.0 0.00 0.00 0.00 89 1019.8
20260901055025 76 0 0.0 0.0 0.00 0.00 0.00 89 1019.7
20260901054543 76 0 0.0 0.0 0.00 0.00 0.00 88 1019.7
20260901054025 76 0 0.0 0.0 0.00 0.00 0.00 88 1019.7
20260901053521 76 0 0.0 0.0 0.00 0.00 0.00 88 1019.8
20260901053045 76 0 0.0 0.0 0.00 0.00 0.00 87 1019.8
20260901052524 77 0 0.0 0.0 0.00 0.00 0.00 87 1019.8
20260901052027 77 0 0.0 0.0 0.00 0.00 0.00 87 1019.8
20260901051551 77 0 0.0 0.0 0.00 0.00 0.00 87 1019.8
20260901051018 77 0 0.0 0.0 0.00 0.00 0.00 87 1019.9
20260901050527 77 0 0.0 0.0 0.00 0.00 0.00 87 1019.8
20260901050045 77 0 0.0 0.0 0.00 0.00 0.00 87 1019.8
20260901045521 77 0 0.0 0.0 0.00 0.00 0.00 87 1019.9
20260901045023 77 0 0.0 0.0 0.00 0.00 0.00 86 1019.9
20260901044541 77 0 0.0 0.0 0.00 0.00 0.00 86 1019.9
20260901044024 77 0 0.0 0.0 0.00 0.00 0.00 86 1019.7
20260901043524 77 0 0.0 0.0 0.00 0.00 0.00 86 1019.8
20260901043044 77 0 0.0 0.0 0.00 0.00 0.00 86 1019.8
20260901042522 77 0 0.0 0.0 0.00 0.00 0.00 85 1019.8
20260901042026 78 0 0.0 0.0 0.00 0.00 0.00 85 1019.9
20260901041542 78 0 0.0 0.0 0.00 0.00 0.00 85 1019.7
20260901041023 78 0 0.0 0.0 0.00 0.00 0.00 85 1019.8
20260901040519 78 0 0.0 0.0 0.00 0.00 0.00 84 1019.8
20260901040045 78 0 0.0 0.0 0.00 0.00 0.00 84 1019.8
20260901035519 78 0 0.0 0.0 0.00 0.00 0.00 84 1019.7
20260901035023 78 0 0.0 0.0 0.00 0.00 0.00 84 1019.7
20260901034543 78 0 0.0 0.0 0.00 0.00 0.00 84 1019.8
20260901034018 78 0 0.0 0.0 0.00 0.00 0.00 84 1019.8
20260901033523 78 0 0.0 0.0 0.00 0.00 0.00 83 1019.7
20260901033045 78 0 0.0 0.0 0.00 0.00 0.00 83 1019.7
20260901032523 78 0 0.0 0.0 0.00 0.00 0.00 83 1019.5
20260901032027 79 0 0.0 0.0 0.00 0.00 0.00 83 1019.5
20260901031544 79 0 0.0 0.0 0.00 0.00 0.00 82 1019.5
20260901031018 79 0 0.0 0.0 0.00 0.00 0.00 82 1019.6
20260901030522 79 0 0.0 0.0 0.00 0.00 0.00 82 1019.5
20260901030043 79 0 0.0 0.0 0.00 0.00 0.00 82 1019.5
20260901025526 79 0 0.0 0.0 0.00 0.00 0.00 82 1019.6
20260901025026 79 0 0.0 0.0 0.00 0.00 0.00 81 1019.6
20260901024543 79 0 0.0 0.0 0.00 0.00 0.00 81 1019.5
20260901024023 79 0 0.0 0.0 0.00 0.00 0.00 81 1019.5
20260901023523 79 0 0.0 0.0 0.00 0.00 0.00 81 1019.5
20260901023044 80 0 0.0 0.0 0.00 0.00 0.00 81 1019.7
20260901022524 80 0 0.0 0.0 0.00 0.00 0.00 81 1019.6
20260901022027 80 0 0.0 0.0 0.00 0.00 0.00 81 1019.5
20260901021542 80 0 0.0 0.0 0.00 0.00 0.00 81 1019.4
20260901021022 80 0 0.0 0.0 0.00 0.00 0.00 80 1019.4
20260901020523 80 0 0.0 0.0 0.00 0.00 0.00 79 1019.4
20260901020043 80 0 0.0 0.0 0.00 0.00 0.00 79 1019.4
20260901015524 80 0 0.0 0.0 0.00 0.00 0.00 79 1019.3
20260901015025 81 0 0.0 0.0 0.00 0.00 0.00 78 1019.3
20260901014551 81 0 0.0 0.0 0.00 0.00 0.00 78 1019.3
20260901014024 81 0 0.0 0.0 0.00 0.00 0.00 77 1019.2
20260901013524 81 0 0.0 0.0 0.00 0.00 0.00 77 1019.0
20260901013050 81 0 0.0 0.0 0.00 0.00 0.00 77 1018.8
20260901012524 81 0 0.0 0.0 0.00 0.00 0.00 76 1018.8
20260901012021 82 0 0.0 0.0 0.00 0.00 0.00 76 1018.7
20260901011543 82 0 0.0 0.0 0.00 0.00 0.00 76 1018.6
20260901011025 82 0 0.0 0.0 0.00 0.00 0.00 75 1018.4
20260901010525 82 0 0.0 0.0 0.00 0.00 0.00 74 1018.3
20260901010046 82 0 0.0 0.0 0.00 0.00 0.00 73 1018.3
20260901005523 83 0 0.0 0.0 0.00 0.00 0.00 73 1018.3
20260901005027 83 0 0.0 0.0 0.00 0.00 0.00 73 1018.2
20260901004547 83 0 0.0 0.0 0.00 0.00 0.00 72 1018.3
20260901004024 84 0 0.0 0.0 0.00 0.00 0.00 71 1018.2
20260901003522 84 0 0.0 0.0 0.00 0.00 0.00 71 1018.1
20260901003043 84 0 0.0 0.0 0.00 0.00 0.00 71 1018.1
20260901002524 84 0 0.0 0.0 0.00 0.00 0.00 70 1018.1
20260901002022 85 0 0.0 0.0 0.00 0.00 0.00 69 1018.1
20260901001546 85 0 0.0 0.0 0.00 0.00 0.00 69 1018.1
20260901001020 85 0 0.0 0.0 0.00 0.00 0.00 68 1018.1
20260901000525 86 0 0.0 0.0 0.00 0.00 0.00 68 1018.1
20260901000045 86 0 0.0 0.0 0.00 0.00 0.00 67 1018.1
20260831235525 86 0 0.0 0.0 0.00 0.00 0.00 67 1018.0
20260831235026 87 0 0.0 0.0 0.00 0.00 0.00 67 1018.1
20260831234550 87 0 0.0 0.0 0.00 0.00 0.00 66 1018.0
20260831234025 88 0 0.0 0.0 0.00 0.00 0.00 65 1018.0
20260831233522 88 0 0.0 0.0 0.00 0.00 0.00 64 1017.9
20260831233047 89 0 0.0 0.0 0.00 0.00 0.00 63 1018.0
20260831232524 89 0 0.0 0.0 0.00 0.00 0.00 62 1017.9
20260831232025 90 0 0.0 0.0 0.00 0.00 0.00 62 1018.0
20260831231544 90 0 0.0 0.0 0.00 0.00 0.00 61 1018.0
20260831231030 90 0 0.0 0.0 0.00 0.00 0.00 59 1018.0
20260831230524 91 0 0.0 0.0 0.00 0.00 0.00 59 1018.1
20260831230044 91 0 0.0 0.0 0.00 0.00 0.00 58 1018.2
20260831225522 92 0 0.0 0.0 0.00 0.00 0.00 58 1018.2
20260831225024 92 0 0.0 0.0 0.00 0.00 0.00 57 1018.2
20260831224542 92 0 0.0 0.0 0.00 0.00 0.00 56 1018.1
20260831224028 93 0 0.0 0.0 0.00 0.00 0.00 56 1018.2
20260831223524 93 0 0.0 0.0 0.00 0.00 0.00 55 1018.1
20260831223053 94 0 0.0 0.0 0.00 0.00 0.00 55 1018.2
20260831222526 94 0 0.0 0.0 0.00 0.00 0.00 56 1018.1
20260831222024 94 0 0.0 0.0 0.00 0.00 0.00 54 1018.1
20260831221543 94 0 0.0 0.0 0.00 0.00 0.00 53 1018.2
20260831221025 94 0 0.0 0.0 0.00 0.00 0.00 55 1018.2
20260831220525 94 0 0.0 0.0 0.00 0.00 0.00 53 1018.2
20260831220046 95 0 0.0 0.0 0.00 0.00 0.00 54 1018.2
20260831215527 95 0 0.0 0.0 0.00 0.00 0.00 53 1018.1
20260831215024 95 0 0.0 0.0 0.00 0.00 0.00 51 1018.2
20260831214557 95 0 0.0 0.0 0.00 0.00 0.00 51 1018.2
20260831214023 96 0 0.0 0.0 0.00 0.00 0.00 50 1018.3
20260831213525 96 0 0.0 0.0 0.00 0.00 0.00 49 1018.3
20260831213043 96 0 0.0 0.0 0.00 0.00 0.00 51 1018.2
20260831212524 96 0 0.0 0.0 0.00 0.00 0.00 51 1018.2
20260831212023 96 0 0.0 0.0 0.00 0.00 0.00 51 1018.0
20260831211546 95 0 0.0 0.0 0.00 0.00 0.00 51 1018.1
20260831211024 95 0 0.0 0.0 0.00 0.00 0.00 51 1018.1
20260831210525 95 0 0.0 0.0 0.00 0.00 0.00 51 1018.1
20260831210041 94 0 0.0 0.0 0.00 0.00 0.00 52 1018.2
20260831205523 94 0 0.0 0.0 0.00 0.00 0.00 52 1018.1
20260831205023 94 0 0.0 0.0 0.00 0.00 0.00 54 1018.2
20260831204543 94 0 0.0 0.0 0.00 0.00 0.00 53 1018.3
20260831204023 94 0 0.0 0.0 0.00 0.00 0.00 51 1018.3
20260831203522 95 0 0.0 0.0 0.00 0.00 0.00 51 1018.4
20260831203041 95 0 0.0 0.0 0.00 0.00 0.00 53 1018.4
20260831202524 95 0 0.0 0.0 0.00 0.00 0.00 54 1018.5
20260831202023 95 0 0.0 0.0 0.00 0.00 0.00 52 1018.5
20260831201546 95 0 0.0 0.0 0.00 0.00 0.00 51 1018.5
20260831201038 95 0 0.0 0.0 0.00 0.00 0.00 53 1018.7
20260831200524 94 0 0.0 0.0 0.00 0.00 0.00 53 1018.6
20260831200044 93 0 0.0 0.0 0.00 0.00 0.00 56 1018.7
20260831195521 93 0 0.0 0.0 0.00 0.00 0.00 59 1018.8
20260831195024 92 0 0.0 0.0 0.00 0.00 0.00 59 1018.9
20260831194545 92 0 0.0 0.0 0.00 0.00 0.00 58 1019.0
20260831194024 92 0 0.0 0.0 0.00 0.00 0.00 62 1019.0
20260831193525 91 0 0.0 0.0 0.00 0.00 0.00 60 1019.0
20260831193112 91 0 0.0 0.0 0.00 0.00 0.00 58 1019.1
20260831192523 91 0 0.0 0.0 0.00 0.00 0.00 61 1019.1
20260831192026 91 0 0.0 0.0 0.00 0.00 0.00 62 1019.1
20260831191544 91 0 0.0 0.0 0.00 0.00 0.00 64 1019.2
20260831191024 91 0 0.0 0.0 0.00 0.00 0.00 61 1019.3
20260831190523 91 0 0.0 0.0 0.00 0.00 0.00 59 1019.4
20260831190048 92 0 0.0 0.0 0.00 0.00 0.00 61 1019.5
20260831185525 91 0 0.0 0.0 0.00 0.00 0.00 59 1019.4
20260831185025 91 0 0.0 0.0 0.00 0.00 0.00 64 1019.6
20260831184542 91 0 0.0 0.0 0.00 0.00 0.00 61 1019.6
20260831184022 91 0 0.0 0.0 0.00 0.00 0.00 65 1019.7
20260831183524 89 0 0.0 0.0 0.00 0.00 0.00 63 1019.8
20260831183054 89 0 0.0 0.0 0.00 0.00 0.00 65 1019.9
20260831182527 90 0 0.0 0.0 0.00 0.00 0.00 63 1019.9
20260831182025 90 0 0.0 0.0 0.00 0.00 0.00 62 1020.0
20260831181552 90 0 0.0 0.0 0.00 0.00 0.00 64 1020.0
20260831181026 89 0 0.0 0.0 0.00 0.00 0.00 64 1020.0
20260831180525 89 0 0.0 0.0 0.00 0.00 0.00 63 1020.0
20260831180043 90 0 0.0 0.0 0.00 0.00 0.00 64 1020.1
20260831175525 90 0 0.0 0.0 0.00 0.00 0.00 62 1020.1
20260831175026 89 0 0.0 0.0 0.00 0.00 0.00 63 1020.2